Location: Gwatt
(46.7204°N, 7.6223°E)
Time: 02:25:54
(UTC+00:00)

Courier 1B Rocket - Pass Details

Date: 21 January 2021
Orbit: 920 x 1202 km, 28.3° (Epoch: 05 March)

Event Time Altitude Azimuth Distance (km) Brightness Sun altitude
Rises 06:54:08 0° 208° (SSW) 3,802 8.1 -2.5°
Reaches altitude 10° 06:59:13 10° 177° (S) 2,929 8.0 -1.8°
Maximum altitude 07:01:17 11° 160° (SSE) 2,858 8.3 -1.4°
Drops below altitude 10° 07:03:24 10° 143° (SE) 2,990 8.9 -1.1°
Sets 07:08:46 0° 113° (ESE) 4,019 11.0 -0.3°
